Tracking 18850 objects as of 22-Nov-2017
HD Live streaming from Space Station
objects crossing your sky now

FENGYUN 1C DEB

Track FENGYUN 1C DEB now!
10-day predictions


NORAD ID: 31182
Int'l Code: 1999-025BJL
Perigee: 845.4 km
Apogee: 879.6 km
Inclination: 98.8 °
Period: 102.0 minutes
Semi major axis: 7233 km
RCS: 0.0134 m2 (small)
Launch date: May 10, 1999
Source: People's Republic of China (PRC)
Launch site: Taiyaun Space Center, China (TSC)

Note: This is SATELLITE DEBRIS
aabbcc
Your satellite tracking list
Your tracking list is empty




NASA's NSSDC Master Catalog

Two Line Element Set (TLE):
1 31182U 99025BJL 17325.37635481  .00000155  00000-0  10981-3 0  9998
2 31182  98.8084   1.8324 0023637 232.3368 183.9039 14.11179205546469
Source of the keplerian elements: AFSPC